User: anonymous   Login
Location: Unspecified
(0.0000°N, 0.0000°E)
Time: 00:36:36
(UTC+00:00)
Language:

COSMOS 2429 - Orbit

View from above orbital plane
View from above orbital plane
View from above satellite
View from above satellite

Ground track
Ground track

The orbit data is extracted from the following two-line orbital elements,

1 32052U 07038A   21023.82975120  .00000046  00000-0  32063-4 0  9990
2 32052  82.9788 217.7676 0038000 338.7708  21.1869 13.74934628670961
Epoch (UTC): 23 January 2021 19:54:50
Eccentricity: 0.0038000
inclination: 82.9788°
perigee height: 954 km
apogee height: 1010 km
right ascension of ascending node: 217.7676°
argument of perigee: 338.7708°
revolutions per day: 13.74934628
mean anomaly at epoch: 21.1869°
orbit number at epoch: 67096

The dashed part of the orbit path shows where the satellite is in the earth's shadow,  

DLR